TimePST,TemperatureF,Dew PointF,Humidity,Sea Level PressureIn,VisibilityMPH,Wind Direction,Wind SpeedMPH,Gust SpeedMPH,PrecipitationIn,Events,Conditions,WindDirDegrees,DateUTC
12:12 AM,46.0,43.0,89,29.88,6.0,South,6.9,-,N/A,,Overcast,190,2014-02-18 08:12:00
12:53 AM,46.0,42.1,86,29.88,5.0,Variable,3.5,-,N/A,,Overcast,0,2014-02-18 08:53:00
1:10 AM,46.0,42.1,86,29.87,4.0,South,8.1,-,N/A,,Overcast,180,2014-02-18 09:10:00
1:41 AM,46.0,42.1,86,29.86,5.0,SE,5.8,-,N/A,,Overcast,140,2014-02-18 09:41:00
1:53 AM,46.0,42.1,86,29.86,5.0,Variable,4.6,-,N/A,,Overcast,0,2014-02-18 09:53:00
2:41 AM,46.0,42.1,86,29.85,6.0,SSE,8.1,-,N/A,,Overcast,150,2014-02-18 10:41:00
2:53 AM,46.0,42.1,86,29.85,6.0,SE,9.2,-,N/A,,Overcast,140,2014-02-18 10:53:00
3:33 AM,46.0,42.1,86,29.82,2.0,South,8.1,-,0.03,Rain,Rain,180,2014-02-18 11:33:00
3:40 AM,46.0,42.1,86,29.81,1.5,Variable,6.9,-,0.07,Rain,Rain,0,2014-02-18 11:40:00
3:45 AM,46.0,42.1,86,29.81,2.0,SSE,6.9,-,0.08,Rain,Rain,150,2014-02-18 11:45:00
3:53 AM,46.0,42.1,86,29.81,3.0,SSE,9.2,17.3,0.10,Rain,Light Rain,160,2014-02-18 11:53:00
4:06 AM,46.0,42.1,86,29.80,2.0,Variable,6.9,17.3,0.03,Rain,Light Rain,0,2014-02-18 12:06:00
4:13 AM,46.0,43.0,89,29.80,2.5,South,8.1,19.6,0.05,Rain,Rain,180,2014-02-18 12:13:00
4:16 AM,46.0,43.0,89,29.80,3.0,South,10.4,19.6,0.05,Rain,Light Rain,190,2014-02-18 12:16:00
4:21 AM,46.0,43.0,89,29.80,4.0,Variable,6.9,19.6,0.06,Rain,Light Rain,0,2014-02-18 12:21:00
4:25 AM,46.0,43.0,89,29.80,2.5,South,9.2,23.0,0.06,Rain,Light Rain,180,2014-02-18 12:25:00
4:37 AM,46.0,42.1,86,29.79,6.0,SSE,15.0,23.0,0.08,Rain,Light Rain,160,2014-02-18 12:37:00
4:53 AM,46.0,42.1,86,29.78,4.0,SSE,10.4,19.6,0.08,Rain,Light Rain,160,2014-02-18 12:53:00
5:01 AM,46.0,42.1,86,29.77,4.0,South,10.4,19.6,0.01,Rain,Light Rain,170,2014-02-18 13:01:00
5:33 AM,46.0,41.0,83,29.75,2.5,South,12.7,26.5,0.04,Rain,Rain,180,2014-02-18 13:33:00
5:53 AM,45.0,39.9,82,29.74,2.5,SSE,9.2,27.6,0.10,Rain,Light Rain,150,2014-02-18 13:53:00
5:58 AM,45.0,41.0,86,29.73,3.0,SSE,12.7,20.7,0.01,Rain,Rain,150,2014-02-18 13:58:00
6:05 AM,45.0,41.0,86,29.72,2.5,SE,12.7,20.7,0.02,Rain,Rain,140,2014-02-18 14:05:00
6:25 AM,45.0,41.0,86,29.71,2.5,Variable,4.6,18.4,0.09,Rain,Rain,0,2014-02-18 14:25:00
6:46 AM,45.0,41.0,86,29.70,1.8,SSE,8.1,-,0.17,Rain,Heavy Rain,150,2014-02-18 14:46:00
6:53 AM,46.0,42.1,86,29.70,2.0,South,9.2,17.3,0.21,Rain,Rain,190,2014-02-18 14:53:00
7:13 AM,48.0,45.0,89,29.67,2.5,South,13.8,23.0,0.06,Rain,Light Rain,190,2014-02-18 15:13:00
7:21 AM,48.9,45.0,86,29.67,3.0,SSW,16.1,23.0,0.06,Rain,Light Rain,200,2014-02-18 15:21:00
7:39 AM,48.9,46.0,90,29.65,1.8,SSW,12.7,24.2,0.08,Rain,Light Rain,200,2014-02-18 15:39:00
7:53 AM,48.9,46.0,90,29.64,2.0,South,17.3,32.2,0.09,Rain,Light Rain,190,2014-02-18 15:53:00
8:12 AM,50.0,46.0,86,29.62,2.5,South,16.1,36.8,0.02,Rain,Light Rain,190,2014-02-18 16:12:00
8:29 AM,50.0,46.9,89,29.61,2.5,South,11.5,28.8,0.03,Rain,Light Rain,180,2014-02-18 16:29:00
8:51 AM,50.0,46.4,87,29.60,3.0,South,16.1,33.4,0.03,Rain,Light Rain,190,2014-02-18 16:51:00
8:53 AM,50.0,46.9,89,29.61,3.0,South,16.1,33.4,0.03,Rain,Light Rain,180,2014-02-18 16:53:00
9:14 AM,50.0,46.0,86,29.60,2.0,South,11.5,27.6,0.01,Rain,Light Rain,180,2014-02-18 17:14:00
9:27 AM,50.0,46.0,86,29.58,3.0,South,19.6,29.9,0.01,Rain,Light Rain,190,2014-02-18 17:27:00
9:53 AM,50.0,46.0,86,29.57,3.0,South,11.5,33.4,0.01,,Overcast,190,2014-02-18 17:53:00
10:23 AM,48.9,46.0,90,29.54,2.0,South,13.8,23.0,0.00,Rain,Light Rain,190,2014-02-18 18:23:00
10:26 AM,50.0,46.0,86,29.53,1.2,South,15.0,23.0,0.00,Rain,Light Rain,190,2014-02-18 18:26:00
10:36 AM,50.0,46.0,86,29.52,0.8,South,10.4,24.2,0.06,Rain,Rain,180,2014-02-18 18:36:00
10:48 AM,50.0,46.4,87,29.52,1.0,SSW,17.3,28.8,0.08,Rain,Light Rain,210,2014-02-18 18:48:00
10:51 AM,50.0,46.4,87,29.51,1.5,SSW,18.4,28.8,0.08,Rain,Light Rain,210,2014-02-18 18:51:00
10:53 AM,50.0,46.9,89,29.52,1.8,SSW,15.0,28.8,0.08,Rain,Light Rain,200,2014-02-18 18:53:00
11:00 AM,50.0,46.9,89,29.53,2.0,SW,21.9,29.9,0.00,Rain,Light Rain,220,2014-02-18 19:00:00
11:20 AM,50.0,46.9,89,29.54,3.0,SW,19.6,27.6,0.00,,Overcast,220,2014-02-18 19:20:00
11:53 AM,50.0,45.0,83,29.55,4.0,SW,18.4,29.9,0.00,Rain,Light Rain,220,2014-02-18 19:53:00
12:20 PM,46.9,42.1,83,29.56,4.0,WSW,21.9,31.1,0.00,Rain,Light Rain,250,2014-02-18 20:20:00
12:53 PM,48.9,41.0,74,29.56,6.0,WSW,19.6,31.1,0.00,Rain,Light Rain,240,2014-02-18 20:53:00
1:26 PM,48.9,39.9,71,29.57,6.0,WSW,23.0,38.0,0.00,Rain,Light Rain,250,2014-02-18 21:26:00
1:53 PM,50.0,41.0,71,29.59,6.0,West,17.3,33.4,0.00,Rain,Light Rain,260,2014-02-18 21:53:00
2:53 PM,46.9,37.9,71,29.62,6.0,West,15.0,34.5,0.00,,Haze,270,2014-02-18 22:53:00
3:01 PM,46.0,37.9,73,29.62,5.0,West,20.7,29.9,0.00,Rain,Light Rain,260,2014-02-18 23:01:00
3:08 PM,46.9,39.0,74,29.63,6.0,WSW,15.0,28.8,0.00,,Haze,250,2014-02-18 23:08:00
3:48 PM,46.4,39.2,76,29.65,2.5,West,20.7,34.5,0.01,Rain,Light Rain,260,2014-02-18 23:48:00
3:53 PM,46.9,39.0,74,29.66,4.0,West,24.2,34.5,0.01,Rain,Light Rain,260,2014-02-18 23:53:00
4:53 PM,46.9,37.0,68,29.70,6.0,WSW,21.9,32.2,0.00,Rain,Light Rain,250,2014-02-19 00:53:00
5:53 PM,44.1,36.0,73,29.73,4.0,West,13.8,26.5,0.02,Rain,Light Rain,270,2014-02-19 01:53:00
6:53 PM,44.1,35.1,71,29.76,7.0,West,11.5,18.4,0.00,,Overcast,270,2014-02-19 02:53:00
7:53 PM,42.1,35.1,76,29.78,7.0,West,11.5,21.9,0.02,Rain,Light Rain,280,2014-02-19 03:53:00
8:53 PM,44.1,36.0,73,29.80,6.0,West,10.4,-,0.00,,Haze,270,2014-02-19 04:53:00
9:53 PM,44.1,35.1,71,29.82,7.0,WSW,10.4,-,N/A,,Overcast,250,2014-02-19 05:53:00
11:53 PM,43.0,35.1,74,29.84,4.0,West,9.2,25.3,0.01,Rain,Light Rain,280,2014-02-19 07:53:00